Location: Bacea
(45.9500°N, 22.6667°E)
Time: 09:07:06
(UTC+00:00)

Cosmos 1703 - Pass Details

Date: 16 October 2021
Orbit: 521 x 538 km, 82.5° (Epoch: 07 December)

Event Time Altitude Azimuth Distance (km) Brightness Sun altitude
Rises 16:27:44 0° 359° (N) 2,699 6.8 -8.8°
Reaches altitude 10° 16:30:05 10° 9° (N) 1,800 5.8 -9.2°
Maximum altitude 16:33:40 32° 74° (ENE) 925 3.9 -9.8°
Drops below altitude 10° 16:37:12 10° 140° (SE) 1,776 5.6 -10.4°
Sets 16:39:29 0° 150° (SSE) 2,657 6.5 -10.8°
